Rogers City, MI

2:17 AM EDT on April 24, 2017 (GMT -0400)
Presque Isle County

Weather History for KPZQ - December, 2013

Change the Weather History Date:

Wednesday, December 18, 2013

  Actual Average (KAPN) Record (KAPN)
Temperature  
Mean Temperature 21 °F -  
Max Temperature 24 °F 28 °F 51 °F (1931)
Min Temperature 18 °F 13 °F -17 °F (1926)
Degree Days  
Heating Degree Days 44    
Moisture  
Dew Point 18 °F    
Average Humidity 85    
Maximum Humidity 95    
Minimum Humidity 78    
Precipitation  
Precipitation 0.00 in - - ()
Sea Level Pressure  
Sea Level Pressure 29.91 in    
Wind  
Wind Speed 7 mph (SW)    
Max Wind Speed 15 mph    
Max Gust Speed 23 mph    
Visibility 8 miles    
Events Snow    
Averages and records for this station are not official NWS values.
T = Trace of Precipitation, MM = Missing Value Source: NWS Daily Summary

Daily Weather History Graph

Daily Weather History Graph

Search for Another Location

Airport or City:

Trip Planner

Search our weather history database for the weather conditions in past years. The results will help you decide how hot, cold, wet, or windy it might be!

Date:

Astronomy

Dec. 18, 2013 Rise Set
Actual Time 8:10 AM EST 4:53 PM EST
Civil Twilight 7:36 AM EST 5:27 PM EST
Nautical Twilight 6:58 AM EST 6:05 PM EST
Astronomical Twilight 6:22 AM EST 6:41 PM EST
Moon 6:28 PM EST (12/18) 8:45 AM EST (12/18)
Length of Visible Light 9h 51m
Length of Day
8h 43m
Full, 98% of the Moon is Illuminated
Dec 18
Full
Dec 25
Last Quarter
Jan 1
New
Jan 7
First Quarter
Jan 15
Full

Hourly Weather History & Observations

Time (EST) Temp. Windchill Dew Point Humidity Pressure Visibility Wind Dir Wind Speed Gust Speed Precip Events Conditions
12:15 AM 22.5 °F 15.1 °F 21.0 °F 94% 29.86 in 10.0 mi SW 5.8 mph - N/A   Overcast
12:35 AM 23.0 °F 14.7 °F 21.6 °F 94% 29.86 in 5.0 mi SW 6.9 mph - N/A Snow Light Snow
12:55 AM 23.0 °F 15.8 °F 21.7 °F 95% 29.86 in 4.0 mi SW 5.8 mph - N/A Snow Light Snow
1:14 AM 23.5 °F 15.4 °F 22.1 °F 94% 29.86 in 4.0 mi WSW 6.9 mph - N/A Snow Light Snow
1:35 AM 23.7 °F 17.8 °F 22.1 °F 94% 29.87 in 5.0 mi WSW 4.6 mph - N/A Snow Light Snow
1:54 AM 24.3 °F 17.3 °F 22.6 °F 94% 29.87 in 5.0 mi West 5.8 mph - N/A Snow Light Snow
2:15 AM 24.6 °F 16.7 °F 22.6 °F 92% 29.88 in 7.0 mi West 6.9 mph - N/A Snow Light Snow
2:35 AM 23.9 °F 15.0 °F 21.6 °F 91% 29.88 in 7.0 mi West 8.1 mph - N/A Snow Light Snow
2:54 AM 23.5 °F 14.5 °F 20.3 °F 87% 29.89 in 10.0 mi West 8.1 mph - N/A Snow Light Snow
3:15 AM 23.0 °F 15.8 °F 19.4 °F 86% 29.90 in 7.0 mi West 5.8 mph - N/A Snow Light Snow
3:34 AM 22.8 °F 13.6 °F 19.4 °F 87% 29.90 in 5.0 mi West 8.1 mph - N/A Snow Light Snow
3:55 AM 22.1 °F 13.7 °F 19.0 °F 88% 29.91 in 5.0 mi West 6.9 mph - N/A Snow Light Snow
4:15 AM 21.9 °F 14.5 °F 19.0 °F 89% 29.91 in 4.0 mi West 5.8 mph - N/A Snow Light Snow
4:34 AM 21.6 °F 14.0 °F 18.9 °F 89% 29.91 in 4.0 mi West 5.8 mph - N/A Snow Light Snow
4:55 AM 21.2 °F 13.6 °F 18.3 °F 89% 29.92 in 7.0 mi West 5.8 mph - N/A Snow Light Snow
5:15 AM 20.7 °F 8.2 °F 17.1 °F 86% 29.92 in 10.0 mi West 12.7 mph 17.3 mph N/A   Overcast
5:34 AM 20.3 °F 9.8 °F 15.6 °F 82% 29.93 in 10.0 mi WNW 9.2 mph - N/A   Overcast
5:55 AM 19.9 °F 11.1 °F 14.4 °F 79% 29.94 in 10.0 mi West 6.9 mph - N/A   Overcast
6:15 AM 19.4 °F 9.5 °F 13.6 °F 78% 29.94 in 10.0 mi West 8.1 mph - N/A   Overcast
6:35 AM 19.0 °F 9.0 °F 13.3 °F 78% 29.95 in 10.0 mi West 8.1 mph - N/A   Overcast
6:55 AM 18.9 °F 8.8 °F 13.5 °F 79% 29.95 in 10.0 mi West 8.1 mph - N/A   Overcast
7:15 AM 18.9 °F 9.8 °F 13.5 °F 79% 29.96 in 10.0 mi West 6.9 mph - N/A   Overcast
7:35 AM 18.5 °F 9.3 °F 13.6 °F 81% 29.96 in 10.0 mi West 6.9 mph - N/A   Overcast
7:55 AM 18.5 °F 9.3 °F 13.6 °F 81% 29.97 in 10.0 mi West 6.9 mph - N/A   Overcast
8:14 AM 18.5 °F 9.3 °F 13.6 °F 81% 29.97 in 10.0 mi West 6.9 mph - N/A   Overcast
8:35 AM 18.5 °F 10.4 °F 13.8 °F 82% 29.97 in 10.0 mi West 5.8 mph - N/A   Overcast
8:55 AM 18.9 °F 8.0 °F 13.8 °F 81% 29.97 in 10.0 mi West 9.2 mph - N/A   Overcast
9:14 AM 18.7 °F 10.6 °F 13.8 °F 81% 29.98 in 10.0 mi West 5.8 mph - N/A   Overcast
9:35 AM 19.4 °F 9.5 °F 14.4 °F 81% 29.99 in 10.0 mi West 8.1 mph - N/A   Overcast
9:55 AM 19.6 °F 8.9 °F 14.5 °F 81% 29.99 in 10.0 mi West 9.2 mph - N/A   Overcast
10:14 AM 19.9 °F 11.1 °F 14.9 °F 81% 30.00 in 7.0 mi West 6.9 mph - N/A Snow Light Snow
10:35 AM 19.8 °F 13.2 °F 14.9 °F 81% 30.00 in 10.0 mi WSW 4.6 mph - N/A Snow Light Snow
10:55 AM 19.8 °F 11.9 °F 15.4 °F 83% 30.00 in 5.0 mi WSW 5.8 mph - N/A Snow Light Snow
11:15 AM 20.3 °F 13.8 °F 16.0 °F 83% 29.99 in 5.0 mi West 4.6 mph - N/A Snow Light Snow
11:35 AM 20.3 °F 11.5 °F 15.8 °F 83% 29.98 in 2.5 mi WSW 6.9 mph - N/A Snow Light Snow
11:55 AM 20.7 °F 11.9 °F 16.2 °F 83% 29.98 in 2.5 mi WSW 6.9 mph - N/A Snow Light Snow
12:15 PM 20.3 °F 12.5 °F 16.2 °F 84% 29.97 in 2.0 mi WSW 5.8 mph - N/A Snow Light Snow
12:35 PM 21.0 °F 16.2 °F 16.7 °F 83% 29.97 in 4.0 mi WSW 3.5 mph - N/A Snow Light Snow
12:54 PM 21.2 °F 12.6 °F 16.7 °F 83% 29.97 in 7.0 mi SW 6.9 mph - N/A Snow Light Snow
1:15 PM 21.7 °F 15.5 °F 17.4 °F 83% 29.96 in 7.0 mi SW 4.6 mph - N/A Snow Light Snow
1:35 PM 22.5 °F 15.1 °F 18.1 °F 83% 29.95 in 7.0 mi SW 5.8 mph - N/A Snow Light Snow
1:54 PM 23.0 °F 13.1 °F 18.1 °F 82% 29.94 in 10.0 mi SW 9.2 mph - N/A   Overcast
2:15 PM 23.5 °F 15.4 °F 18.5 °F 81% 29.93 in 10.0 mi WSW 6.9 mph - N/A   Overcast
2:35 PM 23.7 °F 16.6 °F 18.3 °F 80% 29.94 in 10.0 mi WSW 5.8 mph - N/A   Overcast
2:55 PM 23.7 °F 14.7 °F 18.3 °F 80% 29.94 in 10.0 mi WSW 8.1 mph - N/A   Overcast
3:15 PM 23.5 °F 14.5 °F 18.1 °F 80% 29.94 in 10.0 mi SW 8.1 mph - N/A   Overcast
3:34 PM 23.5 °F 16.4 °F 17.8 °F 79% 29.93 in 10.0 mi WSW 5.8 mph - N/A   Overcast
3:55 PM 23.5 °F 19.1 °F 18.0 °F 79% 29.93 in 10.0 mi SW 3.5 mph - N/A   Overcast
4:15 PM 23.5 °F - 18.1 °F 80% 29.93 in 10.0 mi Calm Calm - N/A   Overcast
4:35 PM 23.5 °F - 18.3 °F 80% 29.92 in 10.0 mi Calm Calm - N/A   Overcast
4:55 PM 23.4 °F - 18.1 °F 80% 29.91 in 10.0 mi Calm Calm - N/A   Overcast
5:15 PM 23.4 °F - 18.1 °F 80% 29.90 in 10.0 mi Calm Calm - N/A   Overcast
5:35 PM 23.0 °F 18.4 °F 18.5 °F 83% 29.90 in 4.0 mi SSE 3.5 mph - N/A Snow Light Snow
5:55 PM 22.3 °F 16.1 °F 19.8 °F 90% 29.89 in 2.5 mi SE 4.6 mph - N/A Snow Light Snow
6:14 PM 22.1 °F 14.7 °F 20.1 °F 92% 29.88 in 7.0 mi SE 5.8 mph - N/A Snow Light Snow
6:35 PM 22.1 °F 13.7 °F 20.1 °F 92% 29.87 in 10.0 mi SE 6.9 mph - N/A   Overcast
6:55 PM 22.1 °F 14.7 °F 20.3 °F 93% 29.86 in 10.0 mi SE 5.8 mph - N/A   Overcast
7:14 PM 22.1 °F 13.7 °F 20.3 °F 93% 29.87 in 10.0 mi SE 6.9 mph - N/A   Overcast
7:35 PM 22.1 °F 14.7 °F 20.1 °F 92% 29.85 in 10.0 mi SE 5.8 mph - N/A   Overcast
7:55 PM 22.1 °F 13.7 °F 19.9 °F 91% 29.85 in 10.0 mi SE 6.9 mph - N/A   Overcast
8:15 PM 22.5 °F 15.1 °F 19.8 °F 89% 29.85 in 10.0 mi SE 5.8 mph - N/A   Overcast
8:35 PM 22.6 °F 13.4 °F 19.4 °F 87% 29.84 in 10.0 mi SE 8.1 mph - N/A   Overcast
8:55 PM 22.5 °F 14.1 °F 18.7 °F 85% 29.83 in 10.0 mi SSE 6.9 mph - N/A   Overcast
9:15 PM 21.7 °F 12.3 °F 18.1 °F 86% 29.83 in 10.0 mi SSE 8.1 mph - N/A   Scattered Clouds
9:35 PM 21.6 °F 14.0 °F 18.0 °F 86% 29.82 in 10.0 mi SSE 5.8 mph - N/A   Mostly Cloudy
9:54 PM 21.6 °F 13.0 °F 18.0 °F 86% 29.81 in 10.0 mi SSE 6.9 mph - N/A   Overcast
10:15 PM 21.7 °F 13.2 °F 18.1 °F 86% 29.80 in 10.0 mi South 6.9 mph - N/A   Overcast
10:34 PM 22.1 °F 12.0 °F 18.5 °F 86% 29.79 in 10.0 mi South 9.2 mph - N/A   Overcast
10:55 PM 22.8 °F 12.2 °F 18.9 °F 85% 29.78 in 10.0 mi South 10.4 mph - N/A   Overcast
11:15 PM 23.0 °F 11.1 °F 19.2 °F 85% 29.76 in 10.0 mi South 12.7 mph - N/A   Overcast
11:34 PM 23.0 °F 10.1 °F 19.2 °F 85% 29.76 in 10.0 mi South 15.0 mph - N/A   Overcast
11:55 PM 23.0 °F 10.1 °F 19.0 °F 85% 29.75 in 10.0 mi South 15.0 mph 23.0 mph N/A   Overcast